[[{"header":{"parameterUnit":"m.s-1","parameterCategory":1,"la1":30.2991,"la2":30.254,"lo1":-89.0895,"lo2":-89.0444,"dy":0.0017,"dx":0.0017,"nx":28,"ny":28,"refTime":"2024-10-02T21:00:00:Z","depth":0,"parameterNumber":2,"parameterNumberName":"U-component_of_WINDS"},"data":[0,0,0,0,0,0,0,0,0,0,0,0,0,0,0,0,0,0,0,0,0,0,0,0,0,0,0,0,0,0,0,0,0,0,0,0,0,0,0,0,0,0,0,0,0,0,0,0,0,0,0,0,0,0,0,0,0,0,-4.9305,-4.9305,0,-4.9332,-4.9332,-4.9333,-4.9185,-4.918,-4.9176,-4.9172,-4.9197,-4.9202,-4.9206,0,0,0,0,0,0,0,0,0,0,0,0,0,-4.9123,-4.9127,-4.9305,-4.9305,-4.9306,-4.9332,-4.9332,-4.9333,-4.9185,-4.918,-4.9175,-4.917,-4.9196,-4.9201,-4.9207,0,0,0,0,0,0,0,0,0,0,0,0,0,-4.9181,-4.9129,-4.9305,-4.9235,-4.923,-4.9332,-4.9332,-4.9333,-4.9186,-4.918,-4.9174,-4.9168,-4.9194,-4.92,-4.9207,-4.9377,0,0,-4.9228,-4.9231,0,0,0,0,0,0,0,0,-4.9178,-4.9188,-4.9245,-4.924,-4.9234,-4.9248,-4.9277,-4.9348,-4.9188,-4.9203,-4.9172,-4.9165,-4.9219,-4.9224,-4.9242,-4.9378,-4.9379,-4.9229,-4.9233,-4.9236,-4.9238,0,0,0,0,0,0,0,-4.9174,-4.9186,-4.9316,-4.9246,-4.9239,-4.9202,-4.9203,-4.929,-4.9246,-4.9201,-4.919,-4.9196,-4.9215,-4.9236,-4.9242,-4.938,-4.9229,-4.9235,-4.9239,-4.9242,-4.9654,-4.9661,0,0,0,0,0,0,-4.918,-4.9184,-4.9315,-4.9316,-4.919,-4.921,-4.9212,-4.925,-4.9245,-4.9238,-4.9201,-4.9189,-4.9227,-4.9234,-4.9242,-4.9438,-4.9236,-4.9243,-4.9247,-4.9647,-4.9656,-4.9663,0,0,0,0,0,0,-4.9177,-4.9193,-4.9314,-4.9247,-4.926,-4.922,-4.9265,-4.9254,-4.9275,-4.9245,-4.9236,-4.9231,-4.9223,-4.9233,-4.9344,-4.9437,-4.9246,-4.9252,-4.9639,-4.965,-4.9659,-4.9834,0,0,0,0,0,0,-4.9172,-4.9193,-4.9258,-4.925,-4.9264,-4.9417,-4.927,-4.9259,-4.9288,-4.9272,-4.9271,-4.9264,-4.9218,-4.9335,-4.9351,-4.9443,-4.9257,-4.9631,-4.9644,-4.9656,-4.982,-4.9849,-4.9874,0,0,0,0,0,-4.9166,-4.9305,-4.9262,-4.9278,-4.9344,-4.9422,-4.943,-4.9375,-4.9296,-4.936,-4.934,-4.9264,-4.9426,-4.9348,-4.9365,-4.9461,-4.9624,-4.964,-4.9655,-4.9808,-4.9843,-4.9873,0,0,0,0,0,0,-4.9324,-4.9303,-4.9254,-4.9395,-4.9412,-4.9397,-4.9476,-4.9415,-4.9453,-4.9437,-4.9366,-4.9367,-4.9491,-4.9487,-4.9401,-4.9624,-4.9511,-4.9531,-4.9621,-4.9655,-4.9681,-4.9678,-4.9263,0,0,0,0,0,-4.9375,-4.9442,-4.942,-4.9546,-4.9557,-4.9516,-4.9548,-4.9504,-4.9518,-4.9524,-4.9512,-4.9528,-4.9582,-4.9618,-4.9666,-4.982,-4.9816,-4.9894,-4.9921,-4.9944,-4.996,-5.0039,-5.0073,-4.9713,-4.9713,-4.9713,0,0,-4.9481,-4.9478,-4.9524,-4.9578,-4.9585,-4.9654,-4.9522,-4.9601,-4.9651,-4.9535,-4.964,-4.9633,-4.9645,-4.9778,-4.9836,-4.9779,-5.0059,-4.9963,-4.9981,-4.9986,-5.0058,-5.0092,-5.0123,-4.9724,-4.9722,-4.972,0,0,-4.9709,-4.9716,-4.982,-4.9831,-4.9845,-4.9817,-4.9842,-4.9837,-4.9828,-4.9932,-4.9847,-4.9905,-5.0,-5.0012,-5.003,-5.0265,-5.0195,-5.0283,-5.0423,-5.0501,-5.0529,-5.0554,-5.0635,-5.0665,-5.03,-5.0301,-5.0301,0,-4.9839,-4.994,-4.9882,-4.9966,-4.9991,-4.9892,-4.9997,-5.001,-5.0039,-5.0058,-4.9994,-5.011,-5.0112,-5.0245,-5.0303,-5.0322,-5.0347,-5.0281,-5.053,-5.0554,-5.0576,-5.0653,-5.0684,-5.0311,-5.031,-5.0309,-5.0308,0,-5.0098,-5.017,-5.0253,-5.0284,-5.0319,-5.0414,-5.0368,-5.0411,-5.0365,-5.0344,-5.045,-5.0449,-5.0494,-5.0524,-5.048,-5.0651,-5.0615,-5.0542,-5.0427,-5.0622,-5.0692,-5.0721,-5.0326,-5.0322,-5.0319,-5.0316,0,0,-5.0423,-5.0422,-5.0453,-5.0465,-5.0474,-5.0527,-5.0617,-5.0663,-5.0699,-5.0723,-5.0795,-5.0879,-5.0811,-5.0832,-5.0789,-5.0858,-5.1041,-5.0776,-5.0775,-5.0823,-5.1227,-5.1279,-5.1314,-5.0997,-5.1002,-5.1006,-5.1225,0,-5.0644,-5.0797,-5.0748,-5.0903,-5.0967,-5.0874,-5.0952,-5.0966,-5.0949,-5.1,-5.0981,-5.104,-5.0948,-5.096,-5.1024,-5.1005,-5.112,-5.0989,-5.106,-5.1064,-5.1057,-5.1351,-5.1406,-5.1612,-5.1252,-5.1257,-5.126,0,-5.0921,-5.0956,-5.1118,-5.1115,-5.114,-5.1211,-5.1248,-5.13,-5.1313,-5.1295,-5.1321,-5.1263,-5.1349,-5.1237,-5.1355,-5.1266,-5.1293,-5.1289,-5.1295,-5.1297,-5.1171,-5.1357,-5.1677,-5.1707,-5.1304,-5.13,-5.1297,0,-5.1138,-5.1226,-5.1334,-5.1348,-5.1348,-5.14,-5.1402,-5.1409,-5.144,-5.1472,-5.1491,-5.1534,-5.1556,-5.159,-5.1545,-5.1468,-5.1669,-5.1553,-5.1654,-5.1656,-5.1697,-5.1695,-5.2023,-5.1722,-5.1721,-5.1721,-5.172,0,-5.1387,-5.1489,-5.1431,-5.1497,-5.1608,-5.1551,-5.1662,-5.1654,-5.1661,-5.1723,-5.1647,-5.1706,-5.1645,-5.1698,-5.1664,-5.1765,-5.1777,-5.1764,-5.1753,-5.1768,-5.177,-5.1782,-5.1765,-5.1729,-5.1727,-5.1725,-5.1724,0,-5.1646,-5.1612,-5.1723,-5.1715,-5.1715,-5.1797,-5.1789,-5.1849,-5.1828,-5.1907,-5.1922,-5.1888,-5.1947,-5.1907,-5.1967,-5.1943,-5.2075,-5.2046,-5.2071,-5.2061,-5.2163,-5.2153,-5.2507,-5.255,-5.2226,-5.2229,-5.2232,0,-5.1805,-5.1881,-5.1882,-5.1919,-5.1926,-5.1986,-5.2017,-5.1964,-5.1999,-5.202,-5.2078,-5.2131,-5.2169,-5.2268,-5.2248,-5.2293,-5.2262,-5.2383,-5.2267,-5.2281,-5.2259,-5.2254,-5.226,-5.2405,-5.2409,-5.2412,-5.2415,0,-5.209,-5.207,-5.2118,-5.2161,-5.22,-5.2231,-5.2255,-5.2289,-5.2236,-5.2279,-5.2339,-5.237,-5.2431,-5.2483,-5.2521,-5.2522,-5.2459,-5.2452,-5.2477,-5.2491,-5.2501,-5.2494,-5.213,-5.2443,-5.244,-5.2438,-5.2436,-5.2435,-5.2302,-5.2364,-5.2375,-5.243,-5.2444,-5.2469,-5.2524,-5.2511,-5.256,-5.2606,-5.2572,-5.2643,-5.2654,-5.2698,-5.2707,-5.2761,-5.2711,-5.2748,-5.2757,-5.2766,-5.2779,-5.2497,-5.2768,-5.2767,-5.2766,-5.2766,-5.2765,0,-5.2579,-5.2582,-5.2635,-5.2671,-5.2715,-5.2656,-5.268,-5.2719,-5.2783,-5.28,-5.284,-5.2909,-5.296,-5.2945,-5.299,-5.3036,-5.3008,-5.3049,-5.3043,-5.3044,-5.2822,-5.2794,-5.3071,-5.3071,-5.3071,-5.3071,-5.3071,-5.3071,-5.2729,-5.2831,-5.2813,-5.2921,-5.2922,-5.2992,-5.3011,-5.3033,-5.3045,-5.3125,-5.3168,-5.3159,-5.3162,-5.3207,-5.3251,-5.3245,-5.3264,-5.3315,-5.3298,-5.309,-5.306,-5.3031,-5.3004,-5.332,-5.3321,-5.3515,-5.3516,-5.3518]},{"header":{"parameterUnit":"m.s-1","parameterCategory":1,"la1":30.2991,"la2":30.254,"lo1":-89.0895,"lo2":-89.0444,"dy":0.0017,"dx":0.0017,"nx":28,"ny":28,"refTime":"2024-10-02T21:00:00:Z","depth":0,"parameterNumber":3,"parameterNumberName":"V-component_of_WINDS"},"data":[0,0,0,0,0,0,0,0,0,0,0,0,0,0,0,0,0,0,0,0,0,0,0,0,0,0,0,0,0,0,0,0,0,0,0,0,0,0,0,0,0,0,0,0,0,0,0,0,0,0,0,0,0,0,0,0,0,0,0.3132,0.3133,0,0.3168,0.3169,0.3169,0.3128,0.3126,0.3125,0.3123,0.316,0.3162,0.3165,0,0,0,0,0,0,0,0,0,0,0,0,0,0.3029,0.3031,0.3132,0.3133,0.3133,0.3168,0.3169,0.3169,0.3128,0.3126,0.3124,0.3123,0.3159,0.3162,0.3165,0,0,0,0,0,0,0,0,0,0,0,0,0,0.307,0.3032,0.3132,0.3117,0.3116,0.3168,0.3169,0.3169,0.3128,0.3126,0.3124,0.3122,0.3158,0.3162,0.3165,0.3234,0,0,0.3176,0.3178,0,0,0,0,0,0,0,0,0.3068,0.3074,0.3119,0.3118,0.3117,0.3141,0.3145,0.3191,0.3129,0.3124,0.3123,0.3121,0.3155,0.3159,0.3171,0.3236,0.3237,0.3177,0.3179,0.318,0.3181,0,0,0,0,0,0,0,0.3065,0.3072,0.3146,0.3119,0.3118,0.3108,0.3112,0.3154,0.3152,0.3124,0.3121,0.3126,0.3155,0.3168,0.3171,0.3238,0.3176,0.318,0.3182,0.3183,0.3362,0.3364,0,0,0,0,0,0,0.3064,0.307,0.3145,0.3148,0.3086,0.3112,0.3116,0.3136,0.3152,0.3152,0.3128,0.3124,0.3163,0.3167,0.3173,0.3256,0.318,0.3184,0.3186,0.3359,0.3363,0.3365,0,0,0,0,0,0,0.3062,0.3071,0.3144,0.3108,0.3117,0.3116,0.3139,0.3138,0.3151,0.3154,0.3154,0.3142,0.3161,0.3168,0.3219,0.3256,0.3185,0.3189,0.3356,0.336,0.3364,0.3421,0,0,0,0,0,0,0.3059,0.3071,0.3097,0.3109,0.3119,0.319,0.3141,0.314,0.3157,0.3152,0.3167,0.3167,0.316,0.3214,0.3223,0.326,0.3191,0.3353,0.3358,0.3363,0.3416,0.3427,0.3436,0,0,0,0,0,0.3056,0.3111,0.3098,0.3107,0.3151,0.3192,0.3198,0.3188,0.316,0.3187,0.3189,0.3167,0.325,0.322,0.3229,0.3268,0.3351,0.3357,0.3362,0.3412,0.3425,0.3435,0,0,0,0,0,0,0.3103,0.3112,0.3098,0.3159,0.3175,0.3185,0.3218,0.3201,0.3226,0.322,0.3206,0.321,0.3266,0.3271,0.3237,0.3336,0.3296,0.3304,0.333,0.3343,0.3352,0.335,0.3194,0,0,0,0,0,0.312,0.3153,0.3159,0.3213,0.3221,0.3219,0.3236,0.3227,0.3243,0.325,0.3256,0.3272,0.3302,0.3322,0.335,0.3416,0.342,0.3448,0.3457,0.3465,0.3473,0.351,0.3523,0.3384,0.3384,0.3384,0,0,0.3157,0.3166,0.3188,0.3222,0.3234,0.3268,0.3225,0.3263,0.3288,0.3255,0.3305,0.331,0.3328,0.3388,0.3414,0.3394,0.3512,0.3473,0.3479,0.3482,0.3517,0.353,0.3542,0.3388,0.3388,0.3387,0,0,0.3242,0.3251,0.3298,0.331,0.3328,0.3326,0.3337,0.335,0.3352,0.3402,0.3378,0.3408,0.346,0.3474,0.3488,0.3578,0.3559,0.3587,0.3639,0.3675,0.3686,0.3696,0.373,0.3742,0.3594,0.3595,0.3595,0,0.3286,0.3337,0.3324,0.3364,0.3381,0.3352,0.3399,0.3412,0.3438,0.345,0.3427,0.3492,0.3502,0.3565,0.3588,0.3599,0.3612,0.3586,0.3685,0.3695,0.3704,0.3736,0.3749,0.3598,0.3598,0.3597,0.3597,0,0.339,0.3426,0.3461,0.3487,0.3508,0.3551,0.3545,0.3567,0.3556,0.3556,0.3608,0.3618,0.3649,0.3662,0.3652,0.3725,0.3712,0.3688,0.3648,0.3721,0.3751,0.3763,0.3603,0.3602,0.3601,0.36,0,0,0.3507,0.3526,0.3539,0.3552,0.3569,0.3597,0.3639,0.3668,0.3688,0.3707,0.3743,0.3787,0.3765,0.3781,0.3771,0.3803,0.3876,0.3775,0.3775,0.3795,0.3959,0.3979,0.3994,0.3863,0.3865,0.3867,0.3958,0,0.3594,0.3668,0.3657,0.3729,0.3762,0.3736,0.3773,0.3788,0.3789,0.3818,0.3819,0.3851,0.3819,0.3828,0.3858,0.3861,0.3909,0.3854,0.3897,0.3899,0.3896,0.4009,0.403,0.4116,0.397,0.3972,0.3973,0,0.3705,0.3729,0.3804,0.3817,0.3831,0.3864,0.3891,0.3918,0.3935,0.3934,0.3952,0.3937,0.3979,0.3937,0.3997,0.3959,0.3976,0.398,0.3983,0.3989,0.3942,0.402,0.4143,0.4157,0.3991,0.399,0.3989,0,0.3786,0.3836,0.3887,0.3898,0.3915,0.3939,0.3947,0.3961,0.398,0.4003,0.4015,0.4043,0.4059,0.4081,0.4074,0.4043,0.4135,0.4092,0.4137,0.4137,0.4159,0.4158,0.4289,0.4166,0.4166,0.4166,0.4166,0,0.3885,0.3932,0.3924,0.3956,0.4008,0.3996,0.4048,0.4053,0.4066,0.4098,0.4076,0.4107,0.4095,0.4126,0.412,0.4171,0.4178,0.4179,0.4177,0.4182,0.4183,0.4195,0.419,0.4169,0.4169,0.4168,0.4167,0,0.3985,0.3981,0.4036,0.4047,0.405,0.4089,0.4098,0.4129,0.4128,0.417,0.4179,0.4178,0.4213,0.4207,0.4246,0.4242,0.4307,0.4297,0.4302,0.43,0.4346,0.4343,0.4491,0.4511,0.4373,0.4375,0.4376,0,0.405,0.4086,0.4101,0.4121,0.4131,0.4164,0.4183,0.4172,0.4193,0.4215,0.4243,0.4276,0.4302,0.4359,0.4362,0.4391,0.4383,0.4433,0.4387,0.4392,0.4386,0.4385,0.439,0.4443,0.4444,0.4446,0.4447,0,0.4166,0.4162,0.4191,0.4219,0.4243,0.4264,0.4284,0.4302,0.4292,0.4317,0.4353,0.4373,0.4412,0.4446,0.4474,0.4482,0.4464,0.4461,0.4473,0.448,0.4482,0.4484,0.4329,0.4458,0.4457,0.4456,0.4455,0.4455,0.4252,0.4283,0.4299,0.4332,0.4345,0.4364,0.4394,0.4396,0.4426,0.4458,0.4449,0.449,0.4506,0.4541,0.4552,0.4584,0.4566,0.4583,0.4588,0.4593,0.46,0.4475,0.4589,0.4589,0.4588,0.4588,0.4588,0,0.4369,0.4378,0.4408,0.4436,0.4462,0.4442,0.4462,0.4486,0.4522,0.4538,0.4564,0.4606,0.4638,0.4644,0.4674,0.4699,0.4692,0.4708,0.4707,0.471,0.4613,0.4601,0.4714,0.4714,0.4713,0.4713,0.4713,0.4713,0.4433,0.4486,0.4484,0.4543,0.4551,0.4591,0.4605,0.4623,0.4636,0.4683,0.471,0.4713,0.4726,0.4757,0.4786,0.4787,0.48,0.482,0.4818,0.4729,0.4716,0.4704,0.4693,0.4823,0.4823,0.4912,0.4913,0.4914]}]]